Location: Austin
(30.3000°N, 97.7500°W)
Time: 12:29:29
(UTC-05:00)

CSL-04 Rocket - Pass Details

Date: 26 May 2023
Orbit: 805 x 860 km, 98.8° (Epoch: 31 May)

Event Time Altitude Azimuth Distance (km) Brightness Sun altitude
Exits shadow 22:00:24 11° 187° (S) 2,299 5.7 -18.3°
Maximum altitude 22:05:14 48° 260° (W) 1,048 4.4 -19.1°
Drops below altitude 10° 22:10:19 10° 334° (NNW) 2,392 7.0 -19.9°
Sets 22:12:45 0° 340° (NNW) 3,330 7.9 -20.3°
